DateTimeUTC,F1_A11,F1_S11,BsB_S11,BsG_S11,BsR_S11,BbsB_S11,BbsG_S11,BbsR_S11,BaB_A11,BaG_A11,BaR_A11,Tu_S11,T_S11,Uu_S11,U_S11,P_S11,T1_A11
2021-11-23T12:00:00Z,00000200,21000000,,,,,,,-000.12,-000.18,0000.14,18.6,25.5,,00.0,0641.7,30.8
2021-11-23T12:01:00Z,00000200,21000000,,,,,,,-000.32,0000.20,-000.01,18.6,25.5,,00.0,0641.7,30.9
2021-11-23T12:02:00Z,00000200,21000000,,,,,,,-000.05,-000.24,-000.40,18.6,25.5,,00.0,0641.7,30.8
2021-11-23T12:03:00Z,00000200,61000000,,,,,,,0000.05,0000.03,0000.23,18.6,25.5,,00.0,0641.7,30.8
2021-11-23T12:04:00Z,00000200,41000000,-000.28,-000.12,0000.00,0000.02,0000.06,0000.09,0000.32,0000.06,-000.12,18.8,25.4,,00.0,0642.6,30.8
2021-11-23T12:05:00Z,00000200,01000000,0000.26,0000.37,0000.03,-000.49,0000.09,-000.16,0000.06,0000.36,-000.11,18.8,25.3,,00.0,0642.7,30.8
2021-11-23T12:06:00Z,00000200,01000000,0000.55,0000.05,0000.03,0000.54,0000.08,0000.30,0000.13,-000.48,0000.22,18.8,25.3,,00.0,0642.7,30.8
2021-11-23T12:07:00Z,00000200,01000000,0001.01,0000.10,0000.23,0000.41,0000.06,-000.07,-000.14,0000.37,-000.14,18.9,25.4,,00.0,0642.7,30.8
2021-11-23T12:08:00Z,00000200,01000000,0000.08,0000.06,0000.33,-000.26,-000.26,-000.13,0000.39,0000.14,0000.14,18.9,25.4,,00.0,0642.7,30.8
2021-11-23T12:09:00Z,00000200,01000000,-000.12,0000.28,0000.06,0000.24,0000.30,0000.15,0000.10,0000.15,0000.16,19.0,25.4,,00.0,0642.7,30.8
2021-11-23T12:10:00Z,00000200,01000000,0000.42,0000.39,-000.05,-000.09,-000.01,0000.12,0000.20,0000.02,0000.25,19.0,25.3,,00.0,0642.7,30.8
2021-11-23T12:11:00Z,00000200,01000000,0000.24,-000.18,0000.08,0000.02,0000.34,0000.32,0000.17,0000.11,-000.32,19.0,25.4,,00.0,0642.7,30.8
2021-11-23T12:12:00Z,00000200,01000000,0000.09,0000.38,0000.09,-000.03,0000.12,0000.21,-000.20,-000.08,-000.01,19.0,25.4,,00.0,0642.7,30.8
2021-11-23T12:13:00Z,00000200,01000000,0000.94,0000.08,0000.35,0000.56,-000.08,0000.12,0000.22,0000.20,0000.44,19.0,25.4,,00.0,0642.7,30.8
2021-11-23T12:14:00Z,00000200,01000000,-000.04,0000.10,0000.15,0000.80,-000.02,0000.06,-000.22,-000.33,0000.15,19.0,25.4,,00.0,0642.7,30.8
2021-11-23T12:15:00Z,00000200,01000000,0000.33,0000.02,0000.19,-000.69,-000.26,-000.09,-000.07,0000.13,-000.05,19.0,25.4,,00.0,0642.7,30.8
2021-11-23T12:16:00Z,00000200,01000000,0000.61,0000.06,0000.30,-000.83,-000.07,0000.00,0000.16,0000.07,0000.16,19.0,25.5,,00.0,0642.7,30.8
2021-11-23T12:17:00Z,00000200,01000000,-000.22,0000.29,0000.03,0000.24,0000.04,-000.01,0000.05,0000.32,-000.41,18.9,25.4,,00.0,0642.7,30.8
2021-11-23T12:18:00Z,00000200,01000000,0000.16,0000.66,0000.07,0000.22,0000.25,-000.00,-000.12,-000.41,0000.38,18.8,25.4,,00.0,0642.7,30.8
2021-11-23T12:19:00Z,00000200,01000000,0000.36,0000.05,-000.20,-000.21,0000.07,0000.04,-000.05,0000.44,-000.26,18.8,25.4,,00.0,0642.7,30.8
2021-11-23T12:20:00Z,00000200,01000000,0000.32,0000.19,0000.11,0000.25,-000.05,0000.00,0000.16,-000.70,-000.02,18.8,25.3,,00.0,0642.7,30.8
2021-11-23T12:21:00Z,00000200,01000000,0002.16,0002.36,0002.28,0000.54,0000.62,0000.66,0004.58,0004.89,0004.45,18.8,25.3,,00.0,0642.4,30.8
2021-11-23T12:22:00Z,00000200,01000000,0002.39,0003.36,0003.39,0000.93,0001.01,0000.79,0014.57,0015.04,0015.15,18.8,25.4,,00.0,0641.2,30.9
2021-11-23T12:23:00Z,00000200,01000000,0006.35,0006.11,0006.58,0001.19,0001.55,0001.47,0026.00,0025.63,0026.16,18.8,25.4,,00.0,0641.1,30.9
2021-11-23T12:24:00Z,00000200,01000000,0000.02,0000.33,0000.40,0000.48,0000.19,0000.24,0000.30,0000.78,0000.31,18.9,25.4,,00.0,0641.1,30.9
2021-11-23T12:25:00Z,00000200,01000000,0000.74,0000.28,0000.13,0000.46,0000.29,0000.28,-000.42,-000.40,-000.30,18.9,25.4,,00.0,0641.2,30.9
2021-11-23T12:26:00Z,00000200,01000000,0000.22,0000.30,0000.02,0000.10,0000.33,-000.15,-000.24,-000.36,-000.14,18.9,25.4,,00.0,0641.2,30.9
2021-11-23T12:27:00Z,00000200,01000000,-000.39,-000.08,0000.42,-000.51,0000.19,0000.17,0000.22,0000.21,-000.03,19.0,25.5,,00.0,0641.2,30.9
2021-11-23T12:28:00Z,00000200,01000000,-000.26,0000.41,0000.05,-000.22,-000.23,0000.30,-000.13,-000.30,-000.25,19.0,25.4,,00.0,0641.2,30.9
2021-11-23T12:29:00Z,00000200,01000000,0000.06,0000.06,-000.17,-000.03,0000.04,0000.15,0000.14,0000.09,0000.26,19.0,25.5,,00.0,0641.2,30.9
2021-11-23T12:30:00Z,00000200,01000000,-000.68,0000.10,0000.64,0000.15,0000.09,0000.01,-000.11,0000.28,-000.12,19.0,25.5,,00.0,0641.2,30.9
2021-11-23T12:31:00Z,00000200,01000000,0000.42,0000.15,0000.28,-000.54,0000.15,0000.04,0000.07,-000.30,-000.08,19.0,25.5,,00.0,0641.2,30.9
2021-11-23T12:32:00Z,00000200,01000000,0000.41,0000.43,0000.25,0000.41,0000.17,0000.04,-000.09,0000.23,0000.12,19.0,25.5,,00.0,0641.2,30.9
2021-11-23T12:33:00Z,00000200,01000000,-000.11,0000.29,0000.24,-000.09,-000.03,0000.40,0000.25,-000.25,0000.06,19.0,25.5,,00.0,0641.2,30.9
2021-11-23T12:34:00Z,00000200,01000000,0000.26,0000.20,0000.55,0000.13,0000.03,0000.29,-000.29,0000.26,-000.03,18.9,25.5,,00.0,0641.2,30.9
2021-11-23T12:35:00Z,00000200,01000000,0000.18,0000.03,-000.11,-000.31,-000.10,-000.02,-000.09,-000.21,-000.02,18.9,25.5,,00.0,0641.2,30.9
2021-11-23T12:36:00Z,00000200,01000000,-000.02,0000.23,-000.31,-000.13,-000.06,0000.08,0000.47,0000.28,0000.14,18.9,25.5,,00.0,0641.2,30.9
2021-11-23T12:37:00Z,00000200,01000000,-000.17,0000.27,-000.05,0000.03,-000.21,-000.10,-000.07,-000.06,-000.24,19.0,25.5,,00.0,0641.2,30.9
2021-11-23T12:38:00Z,00000200,01000000,0000.52,0000.18,0000.00,0000.07,-000.08,-000.34,-000.19,0000.20,0000.23,19.0,25.5,,00.0,0641.2,30.9
2021-11-23T12:39:00Z,00000200,01000000,0000.53,0000.24,0000.25,0000.07,0000.05,0000.11,0000.43,0000.11,0000.06,19.1,25.5,,00.0,0641.2,30.9
2021-11-23T12:40:00Z,00000200,01000000,0000.06,-000.11,0000.17,0000.48,0000.10,0000.12,0000.00,-000.36,-000.02,19.1,25.5,,00.0,0641.2,30.9
2021-11-23T12:41:00Z,00000200,01000000,0000.27,0000.28,0000.36,0000.04,0000.14,0000.31,0000.01,0000.40,0000.22,19.1,25.6,,00.0,0641.2,30.9
2021-11-23T12:42:00Z,00000200,01000000,-000.02,-000.12,0000.03,0000.35,0000.19,-000.08,0000.13,-000.08,0000.12,19.1,25.6,,00.0,0641.3,30.9
2021-11-23T12:43:00Z,00000200,01000000,-000.43,0000.22,0000.18,-000.24,0000.23,0000.22,0000.21,0000.12,0000.02,19.2,25.6,,00.0,0641.3,30.9
2021-11-23T12:44:00Z,00000200,01000000,0000.44,0000.46,0000.27,-000.51,-000.08,0000.36,-000.39,0000.12,-000.13,19.2,25.6,,00.0,0641.3,30.9
2021-11-23T12:45:00Z,00000200,01000000,0001.07,-000.09,0000.19,0000.35,0000.29,0000.34,0000.00,-000.09,-000.03,19.2,25.6,,00.0,0641.3,30.9
2021-11-23T12:46:00Z,00000200,01000000,0000.55,0000.05,-000.05,-000.28,-000.27,0000.14,0000.15,0000.25,-000.02,19.1,25.6,,00.0,0641.3,30.9
2021-11-23T12:47:00Z,00000200,01000000,0000.51,0000.37,0000.28,0000.17,0000.48,-000.25,0000.17,-000.29,0000.00,19.1,25.6,,00.0,0641.3,30.9
2021-11-23T12:48:00Z,00000200,01000000,0000.32,0000.09,0000.36,0000.27,0000.02,0000.05,0000.11,0000.11,0000.05,19.0,25.5,,00.0,0641.4,30.8
2021-11-23T12:49:00Z,00000200,01000000,0000.06,0000.17,0000.11,-000.50,0000.12,0000.26,0000.53,0000.13,0000.18,18.9,25.5,,00.0,0641.4,30.8
2021-11-23T12:50:00Z,00000200,01000000,-000.70,0000.47,-000.19,0000.05,-000.00,0000.19,-000.41,-000.33,-000.22,18.9,25.5,,00.0,0641.4,30.8
2021-11-23T12:51:00Z,00000200,01000000,-000.32,0000.17,0000.28,0000.05,-000.03,-000.09,-000.24,0000.67,0000.00,18.9,25.5,,00.0,0641.4,30.9
2021-11-23T12:52:00Z,00000200,01000000,0000.97,0000.01,0000.41,0000.16,-000.18,0000.31,0000.06,-000.51,0000.20,18.9,25.5,,00.0,0641.5,30.9
2021-11-23T12:53:00Z,00000200,01000000,-000.48,0000.03,0000.04,-000.64,-000.16,-000.38,0000.09,0000.39,-000.10,18.9,25.5,,00.0,0641.5,30.9
2021-11-23T12:54:00Z,00000200,01000000,-000.58,0000.12,0000.26,0000.29,-000.10,0000.19,0000.36,0000.33,0000.22,19.0,25.5,,00.0,0641.5,30.9
2021-11-23T12:55:00Z,00000200,01000000,-000.07,0000.34,0000.56,0000.09,0000.10,0000.22,-000.37,-000.29,0000.18,19.0,25.5,,00.0,0641.6,30.9
2021-11-23T12:56:00Z,00000200,01000000,0000.34,0000.10,-000.01,-000.37,0000.05,0000.12,0000.44,0000.01,-000.31,19.0,25.5,,00.0,0641.6,30.9
2021-11-23T12:57:00Z,00000200,41000000,,,,,,,0000.25,0000.44,0000.15,19.1,25.6,,00.0,0641.6,30.9
2021-11-23T12:58:00Z,00000200,61000000,,,,,,,-000.10,-000.25,0000.29,18.8,25.7,,00.0,0640.7,30.9
2021-11-23T12:59:00Z,00000200,21000000,,,,,,,-000.10,-000.15,-000.20,18.8,25.8,,00.0,0640.7,30.9
